Location: Aufkirchen
(47.9603°N, 11.3653°E)
Time: 14:34:41
(UTC+01:00)

Transit 2A Rocket - Pass Details

Date: 09 December 2020
Orbit: 592 x 910 km, 66.7° (Epoch: 21 January)

Event Time Altitude Azimuth Distance (km) Brightness Sun altitude
Rises 06:02:39 0° 327° (NNW) 3,207 - -17.5°
Exits shadow 06:05:30 - 345° (NNW) 2,353 7.2 -17.0°
Reaches altitude 10° 06:06:05 10° 350° (N) 2,207 7.1 -16.9°
Maximum altitude 06:09:04 16° 27° (NNE) 1,789 7.0 -16.4°
Drops below altitude 10° 06:11:56 10° 64° (ENE) 2,085 7.9 -16.0°
Sets 06:15:01 0° 87° (E) 2,938 9.4 -15.5°
